Regional Weather Roundup
Issued by NWS

Home | Current Version | Previous Version | Graphics & Text | Print | Product List | Glossary On
Versions: 1 2 3 4 5 6 7 8 9 10 11 12 13 14 15 16 17 18 19 20 21 22 23 24 25 26 27 28 29 30 31 32 33 34 35 36 37 38 39 40 41 42 43 44 45 46 47 48 49 50
000
ASUS43 KMKX 012200
RWRWI

WISCONSIN REGIONAL WEATHER ROUNDUP
NATIONAL WEATHER SERVICE MILWAUKEE/SULLIVAN WI
500 PM CDT TUE SEP 01 2015

NOTE: "FAIR" INDICATES FEW OR NO CLOUDS BELOW 12,000 FEET WITH NO
SIGNIFICANT WEATHER AND/OR OBSTRUCTIONS TO VISIBILITY.

WIZ001-002-006>008-014>016-023>028-012300-
NORTHWEST WISCONSIN

CITY           SKY/WX    TMP DP  RH WIND       PRES   REMARKS
SUPERIOR ARPT  MOSUNNY   83  72  70 SW5       29.88S HX  88
ASHLAND        MOSUNNY   83  74  74 W3        29.90R HX  89
HAYWARD        PTSUNNY   83  70  64 SW7       29.92S HX  87
SIREN          PTSUNNY   85  70  61 SW6       29.91R HX  89
CUMBERLAND     CLOUDY    79  70  73 S3        29.92F HX  81
RICE LAKE      CLOUDY    82  71  69 S5        29.93S HX  85
CHETEK         CLOUDY   N/A N/A N/A MISG      29.92S
LADYSMITH      PTSUNNY   82  70  66 SW5       29.95S HX  86
EAU CLAIRE     NOT AVBL
MENOMONIE      CLOUDY    84  73  69 S3        29.90F HX  90
NEW RICHMOND   CLOUDY    82  71  67 CALM      29.90F HX  87
OSCEOLA        CLOUDY    82  71  69 CALM      29.92F HX  87
$$

WIZ003>005-009-010-017-018-012300-
NORTH CENTRAL WISCONSIN

CITY           SKY/WX    TMP DP  RH WIND       PRES   REMARKS
MANITOWISH WTR CLOUDY    80  69  70 SW6       29.95S HX  82
ARBOR VITAE    CLOUDY    82  70  66 SW6       29.96R HX  86
WOODRUFF       CLOUDY    82  70  66 SW6       29.96R HX  86
RHINELANDER    PTSUNNY   81  67  62 W5        29.96F HX  83
EAGLE RIVER    CLOUDY    79  64  59 W6        29.95F HX  81
LAND O LAKES   CLOUDY    79  66  62 SW3       29.96F HX  81
PHILLIPS       PTSUNNY   81  70  68 SW7       29.94F HX  84
TOMAHAWK       PTSUNNY   80  69  68 CALM      29.96S HX  83
MEDFORD        PTSUNNY   83  71  68 W6        29.95S HX  87
MERRILL        MOSUNNY   83  71  66 SW7       29.95F HX  88
$$

WIZ029-030-035-036-043>047-012300-
CENTRAL WISCONSIN

CITY           SKY/WX    TMP DP  RH WIND       PRES   REMARKS
WAUSAU         MOSUNNY   85  69  58 S6        29.92F HX  89
MOSINEE        NOT AVBL
MARSHFIELD     PTSUNNY   86  69  56 SW7       29.94S HX  90
STEVENS POINT  MOSUNNY   84  68  57 SW9       29.95S HX  87
WAUPACA        MOSUNNY   88  69  51 S8        29.94S HX  92
WAUTOMA        NOT AVBL
WISC RAPIDS    MOSUNNY   86  68  54 S9        29.94F HX  89
CAMP DOUGLAS   NOT AVBL
$$

WIZ011>013-019>022-031-037>040-048>050-012300-
NORTHEAST WISCONSIN

CITY           SKY/WX    TMP DP  RH WIND       PRES   REMARKS
ANTIGO         PTSUNNY   82  68  63 SW7       29.97S HX  85
SHAWANO        MOSUNNY   88  68  51 SW7       29.93S HX  91
OCONTO         MOSUNNY   86  71  60 SW8       29.91S HX  91
STURGEON BAY   MOSUNNY   82  72  69 S7        29.96S HX  87
GREEN BAY      MOSUNNY   85  71  63 SW7       29.93S HX  90
MANITOWOC      NOT AVBL
APPLETON       PTSUNNY   86  64  48 SW9       29.93F HX  87
CLINTONVILLE   MOSUNNY   88  66  48 SW10      29.93S HX  90
OSHKOSH        MOSUNNY   85  71  63 S10       29.94S HX  90
$$

WIZ032>034-041-042-053>061-012300-
SOUTHWEST WISCONSIN

CITY           SKY/WX    TMP DP  RH WIND       PRES   REMARKS
LA CROSSE      MOSUNNY   89  73  59 S12       29.90S HX  97
SPARTA         MOSUNNY   88  68  52 S9        29.93S HX  91
VIROQUA          N/A     85  72  64 S7        29.95S HX  91
BOSCOBEL       SUNNY     90  72  55 S9        29.93S HX  97
PRAIRIE DU CHI SUNNY     87  69  55 S8        29.93R HX  91
PLATTEVILLE    SUNNY     86  75  69 S15       29.97S HX  94
$$

WIZ056-057-062-063-064-067-068-012300-
SOUTH CENTRAL WISCONSIN

CITY           SKY/WX    TMP DP  RH WIND       PRES   REMARKS
REEDSBURG      SUNNY     87  73  62 S9        29.94S HX  94
BARABOO/DELLS  SUNNY     87  68  52 SW10      29.95S HX  91
LONE ROCK      NOT AVBL
MINERAL POINT  SUNNY     88  72  58 S9        29.97F HX  94
MADISON        MOSUNNY   87  70  56 S13G21    29.95F HX  92
MIDDLETON      MOSUNNY   89  69  52 SW9       29.97S HX  93
WATERTOWN      MOSUNNY   87  71  58 S12       29.96S HX  92
MONROE         SUNNY     86  70  58 S15       29.98F HX  90
JANESVILLE     MOSUNNY   90  72  55 SW12      29.97S HX  96
$$

WIZ051-052-058>065-066-070>072-012300-
SOUTHEAST WISCONSIN

CITY           SKY/WX    TMP DP  RH WIND       PRES   REMARKS
MILWAUKEE      MOSUNNY   88  68  51 SW14      29.96F HX  91
WAUKESHA       MOSUNNY   84  66  54 SW12      29.98F HX  86
MILWAUKEE/TIMM MOSUNNY   88  64  45 SW10      29.97F HX  89
RACINE         MOSUNNY   88  69  53 SW8       29.98F HAZE    HX  92
BURLINGTON     SUNNY     85  68  55 SW10G17   29.98S HX  88
KENOSHA        SUNNY     88  70  55 SW13      29.98F HX  93
FOND DU LAC    MOSUNNY   86  70  58 SW9       29.95S HX  90
SHEBOYGAN      SUNNY     85  72  65 S7        29.95F HX  91
WEST BEND      PTSUNNY   86  68  54 SW10      29.97S HX  89
JUNEAU         MOSUNNY   85  71  63 S12       29.97F HX  90
$$

LSZ147-162-012300-
LAKE SUPERIOR

STATION/POSITION TIME  TEMP    WIND        PRES    WAVE
                       AIR SEA DIR/SP/G            HT/PER
                 (UTC) (F)     (DEG/KT/KT) (MB)    (FT/S)
W MID LAKE BUOY  2050   60 56  240/  6/  6 1011.9R   0
DEVILS ISLAND    2100   72     260/  9/ 11 1012.0R
PORT WING        2140   78      CALM  /  1 1012.2S
SAXON HARBOR     2100   72        CALM     1011.9S
$$

LMZ867-665-643>646-012300-
LAKE MICHIGAN

STATION/POSITION TIME  TEMP    WIND        PRES    WAVE
                       AIR SEA DIR/SP/G            HT/PER
                 (UTC) (F)     (DEG/KT/KT) (MB)    (FT/S)
CHAMBERS ISLAND  2100   82     130/  5/  9 1012.9F
S GREEN BAY BUOY 2130   73 67  200/  6/  8 1014.7F
N MID LAKE BUOY  2050   67 65  210/ 12/ 14 1013.6F   2/ 4
NORTHPORT PIER   2100   76     160/  8/ 12 1013.2F
SISTER BAY       2104   83     170/ 13/ 15   N/A
ALGOMA LAKESHORE 2114          170/  1/  4   N/A
KEWAUNEE LAKESHO 2100   55     170/ 11/ 13 1013.1F
SHEBOYGAN LAKESH 2100   71     180/ 22/ 23 1014.3F
PORT WASHINGTON  2140   67     180/  3/  6 1014.9F
ATWATER BUOY     2100   63 50  160/ 12/ 14 1016.0F
S MID LAKE BUOY  2050   74 70  180/ 12/ 14 1015.2F   1/ 3
KENOSHA   LAKESH 2100   67     160/ 12/ 14 1014.9S
$$

TC  - TEMPERATURE IN CELSIUS
VSB - VISIBILITY IN STATUTE MILES
WCI - WIND CHILL INDEX
HX  - HEAT INDEX




USA.gov is the U.S. government's official web portal to all federal, state and local government web resources and services.